Hourly Weather Rumienica

Today, 16 April, Friday

Time Temperature Precipitation Wind Pressure Humidity
00:00 +1°C° 0.2 mm 4 mps 746 mmHg 96%
01:00 +1°C° 0.2 mm 4 mps 746 mmHg 96%
02:00 +1°C° 0.2 mm 4 mps 745 mmHg 96%
03:00 +1°C° 0.2 mm 4 mps 745 mmHg 96%
04:00 +1°C° 0.2 mm 4 mps 745 mmHg 97%
05:00 +1°C° 0.1 mm 4 mps 745 mmHg 97%
06:00 +1°C° 0.1 mm 4 mps 745 mmHg 97%
07:00 +1°C° 0.1 mm 4 mps 745 mmHg 97%
08:00 +1°C° 0 mm 4 mps 745 mmHg 96%
09:00 +1°C° 0 mm 4 mps 745 mmHg 95%
10:00 +2°C° 0 mm 5 mps 745 mmHg 94%
11:00 +2°C° 0.1 mm 5 mps 745 mmHg 94%
12:00 +2°C° 0.1 mm 5 mps 745 mmHg 93%
13:00 +3°C° 0.1 mm 5 mps 745 mmHg 92%
14:00 +2°C° 1 mm 5 mps 745 mmHg 94%
15:00 +3°C° 1 mm 4 mps 745 mmHg 95%
16:00 +3°C° 1 mm 4 mps 745 mmHg 96%
17:00 +3°C° 0.1 mm 4 mps 745 mmHg 97%
18:00 +3°C° 0.1 mm 3 mps 745 mmHg 97%
19:00 +3°C° 0.1 mm 3 mps 745 mmHg 98%
20:00 +3°C° 0 mm 3 mps 745 mmHg 98%
21:00 +3°C° 0 mm 3 mps 745 mmHg 98%
22:00 +4°C° 0 mm 3 mps 746 mmHg 98%
23:00 +4°C° 0 mm 3 mps 746 mmHg 98%

Tomorrow, 17 April, Saturday

Time Temperature Precipitation Wind Pressure Humidity
00:00 +4°C° 0 mm 3 mps 746 mmHg 98%
01:00 +4°C° 0 mm 3 mps 745 mmHg 97%
02:00 +4°C° 0 mm 3 mps 745 mmHg 97%
03:00 +4°C° 0 mm 3 mps 745 mmHg 97%
04:00 +4°C° 0 mm 3 mps 745 mmHg 98%
05:00 +5°C° 0 mm 3 mps 746 mmHg 95%
06:00 +5°C° 0 mm 4 mps 746 mmHg 93%
07:00 +6°C° 0 mm 4 mps 746 mmHg 91%
08:00 +6°C° 0 mm 4 mps 746 mmHg 90%
09:00 +7°C° 0 mm 3 mps 746 mmHg 89%
10:00 +8°C° 0 mm 3 mps 747 mmHg 88%
11:00 +9°C° 0.1 mm 3 mps 747 mmHg 83%
12:00 +10°C° 0.1 mm 3 mps 747 mmHg 78%
13:00 +11°C° 0.1 mm 3 mps 747 mmHg 73%
14:00 +11°C° 0.3 mm 3 mps 747 mmHg 72%
15:00 +12°C° 0.3 mm 4 mps 747 mmHg 71%
16:00 +12°C° 0.3 mm 4 mps 746 mmHg 70%
17:00 +10°C° 0.1 mm 3 mps 747 mmHg 77%
18:00 +9°C° 0.1 mm 3 mps 747 mmHg 83%
19:00 +8°C° 0.1 mm 3 mps 747 mmHg 90%
20:00 +7°C° 0 mm 3 mps 747 mmHg 91%
21:00 +7°C° 0 mm 2 mps 747 mmHg 92%
22:00 +6°C° 0 mm 2 mps 747 mmHg 93%
23:00 +6°C° 0 mm 2 mps 748 mmHg 93%

Day after tomorrow, 18 April, Sunday

Time Temperature Precipitation Wind Pressure Humidity
00:00 +6°C° 0 mm 2 mps 748 mmHg 94%
01:00 +5°C° 0 mm 2 mps 748 mmHg 95%
02:00 +5°C° 0 mm 2 mps 747 mmHg 95%
03:00 +5°C° 0 mm 2 mps 747 mmHg 96%
04:00 +5°C° 0 mm 2 mps 747 mmHg 96%
05:00 +5°C° 0 mm 3 mps 747 mmHg 94%
06:00 +7°C° 0 mm 3 mps 747 mmHg 91%
07:00 +8°C° 0 mm 3 mps 748 mmHg 88%
08:00 +9°C° 0 mm 3 mps 748 mmHg 81%
09:00 +11°C° 0 mm 3 mps 747 mmHg 73%
10:00 +13°C° 0 mm 4 mps 747 mmHg 66%
11:00 +13°C° 0.1 mm 4 mps 747 mmHg 64%
12:00 +14°C° 0.1 mm 4 mps 747 mmHg 62%
13:00 +14°C° 0.1 mm 4 mps 747 mmHg 60%
14:00 +14°C° 0.1 mm 4 mps 747 mmHg 63%
15:00 +14°C° 0.1 mm 4 mps 747 mmHg 66%
16:00 +13°C° 0.1 mm 4 mps 747 mmHg 69%
17:00 +12°C° 0.1 mm 4 mps 747 mmHg 75%
18:00 +11°C° 0.1 mm 4 mps 747 mmHg 80%
19:00 +9°C° 0.1 mm 3 mps 747 mmHg 86%
20:00 +9°C° 0 mm 3 mps 747 mmHg 88%
21:00 +8°C° 0 mm 3 mps 747 mmHg 90%
22:00 +7°C° 0 mm 2 mps 747 mmHg 91%
23:00 +7°C° 0 mm 2 mps 747 mmHg 91%

19 April, Monday

Time Temperature Precipitation Wind Pressure Humidity
00:00 +7°C° 0 mm 2 mps 747 mmHg 91%
01:00 +6°C° 0 mm 2 mps 747 mmHg 91%
02:00 +6°C° 0 mm 2 mps 747 mmHg 91%
03:00 +6°C° 0 mm 2 mps 747 mmHg 91%
04:00 +6°C° 0 mm 2 mps 747 mmHg 91%
05:00 +7°C° 0 mm 2 mps 747 mmHg 86%
06:00 +8°C° 0 mm 2 mps 747 mmHg 82%
07:00 +9°C° 0 mm 3 mps 747 mmHg 77%
08:00 +10°C° 0 mm 3 mps 747 mmHg 69%
09:00 +11°C° 0 mm 3 mps 747 mmHg 60%
10:00 +11°C° 0 mm 4 mps 746 mmHg 52%
11:00 +12°C° 0 mm 4 mps 746 mmHg 50%
12:00 +12°C° 0 mm 4 mps 746 mmHg 47%
13:00 +13°C° 0 mm 4 mps 746 mmHg 45%
14:00 +13°C° 0.1 mm 4 mps 745 mmHg 49%
15:00 +12°C° 0.1 mm 4 mps 745 mmHg 53%
16:00 +12°C° 0.1 mm 4 mps 745 mmHg 58%
17:00 +11°C° 0.2 mm 4 mps 745 mmHg 65%
18:00 +8°C° 0.2 mm 4 mps 744 mmHg 72%
19:00 +7°C° 0.2 mm 4 mps 744 mmHg 79%
20:00 +7°C° 0 mm 3 mps 744 mmHg 83%
21:00 +5°C° 0 mm 3 mps 744 mmHg 86%
22:00 +6°C° 0 mm 2 mps 744 mmHg 90%
23:00 +5°C° 0 mm 2 mps 744 mmHg 92%

20 April, Tuesday

Time Temperature Precipitation Wind Pressure Humidity
00:00 +4°C° 0 mm 2 mps 743 mmHg 93%
01:00 +4°C° 0 mm 2 mps 743 mmHg 94%
02:00 +4°C° 0 mm 2 mps 743 mmHg 95%
03:00 +3°C° 0 mm 2 mps 743 mmHg 95%
04:00 +3°C° 0 mm 2 mps 742 mmHg 95%
05:00 +3°C° 0 mm 3 mps 742 mmHg 91%
06:00 +4°C° 0 mm 3 mps 742 mmHg 87%
07:00 +5°C° 0 mm 4 mps 742 mmHg 83%
08:00 +6°C° 0 mm 4 mps 741 mmHg 79%
09:00 +7°C° 0 mm 4 mps 741 mmHg 74%
10:00 +8°C° 0 mm 4 mps 741 mmHg 70%
11:00 +10°C° 0.1 mm 4 mps 741 mmHg 67%
12:00 +10°C° 0.1 mm 4 mps 740 mmHg 64%
13:00 +11°C° 0.1 mm 4 mps 740 mmHg 62%
14:00 +9°C° 0.2 mm 5 mps 739 mmHg 65%
15:00 +9°C° 0.2 mm 5 mps 739 mmHg 68%
16:00 +8°C° 0.2 mm 6 mps 739 mmHg 71%
17:00 +7°C° 0 mm 5 mps 739 mmHg 76%
18:00 +6°C° 0 mm 5 mps 739 mmHg 82%
19:00 +4°C° 0 mm 4 mps 739 mmHg 87%
20:00 +4°C° 0 mm 4 mps 738 mmHg 88%
21:00 +3°C° 0 mm 4 mps 738 mmHg 89%
22:00 +3°C° 0 mm 4 mps 738 mmHg 90%
23:00 +3°C° 0 mm 4 mps 737 mmHg 90%

21 April, Wednesday

Time Temperature Precipitation Wind Pressure Humidity
00:00 +2°C° 0 mm 5 mps 737 mmHg 91%
01:00 +1°C° 0 mm 5 mps 737 mmHg 91%
02:00 +2°C° 0 mm 5 mps 737 mmHg 91%
03:00 +2°C° 0 mm 5 mps 736 mmHg 90%
04:00 +2°C° 0 mm 6 mps 736 mmHg 90%
05:00 +2°C° 0 mm 6 mps 736 mmHg 86%
06:00 +3°C° 0 mm 6 mps 736 mmHg 83%
07:00 +3°C° 0 mm 6 mps 736 mmHg 80%
08:00 +4°C° 0 mm 6 mps 737 mmHg 73%
09:00 +5°C° 0 mm 7 mps 737 mmHg 67%
10:00 +6°C° 0 mm 7 mps 737 mmHg 61%
11:00 +8°C° 0 mm 7 mps 737 mmHg 61%
12:00 +8°C° 0 mm 6 mps 737 mmHg 61%
13:00 +8°C° 0 mm 6 mps 738 mmHg 60%
14:00 +8°C° 0 mm 5 mps 738 mmHg 59%
15:00 +10°C° 0 mm 4 mps 738 mmHg 58%
16:00 +10°C° 0 mm 4 mps 738 mmHg 57%
17:00 +9°C° 0 mm 3 mps 738 mmHg 61%
18:00 +8°C° 0 mm 3 mps 739 mmHg 66%
19:00 +7°C° 0 mm 3 mps 739 mmHg 70%
20:00 +5°C° 0 mm 3 mps 739 mmHg 74%
21:00 +4°C° 0 mm 3 mps 739 mmHg 77%
22:00 +3°C° 0 mm 3 mps 739 mmHg 80%
23:00 +3°C° 0 mm 3 mps 739 mmHg 82%
Show more